Regional Weather Roundup
Issued by NWS Northern Indiana

Home | Current Version | Previous Version | Text Only | Print | Product List | Glossary Off
Versions: 1 2 3 4 5 6 7 8 9 10 11 12 13 14 15 16 17 18 19 20 21 22 23 24 25 26 27 28 29 30 31 32 33 34 35 36 37 38 39 40 41 42 43 44 45 46 47 48 49 50

000
ASUS43 KIWX 200110
RWRIWX

KIWX WEATHER ROUNDUP
NATIONAL WEATHER SERVICE NORTHERN INDIANA
900 PM EDT THU APR 19 2018

NOTE: "FAIR" INDICATES FEW OR NO CLOUDS BELOW 12,000 FEET WITH NO
SIGNIFICANT WEATHER AND/OR OBSTRUCTIONS TO VISIBILITY.

* THESE STATIONS ARE NOT UNDER NWS QUALITY CONTROL. THEY ALSO MAY NOT
  REPORT WEATHER SUCH AS PRECIPITATION OR FOG.

INZ001>027-200200-
NORTHERN INDIANA

CITY           SKY/WX    TMP DP  RH WIND       PRES   REMARKS
GARY*          CLEAR     39  28  65 NE5       30.42S
VALPARAISO     FAIR      41  20  43 N5        30.41R
MICHIGAN CITY* FAIR      37  19  48 N5        30.41S
LAPORTE*       FAIR      39  14  35 N14       30.39S
KNOX*          FAIR      36  19  51 N5        30.40S
SOUTH BEND     FAIR      38  18  44 N14       30.39R
ELKHART*       FAIR      39  18  41 NW14G21   30.37R
GOSHEN         FAIR      39  23  52 NW13      30.36R
MONTICELLO*    FAIR      40  16  37 N10G16    30.39R
LOGANSPORT*    FAIR      41  21  45 N14G21    30.38R
ROCHESTER*     FAIR      41  21  45 N14       30.38R
WARSAW*        FAIR      37  27  65 NW10      30.36R
AUBURN*        FAIR      41  30  65 NW14G20   30.33R
FORT WAYNE     FAIR      43  31  62 NW10      30.33R
HUNTINGTON*    FAIR      41  28  61 NW7G16    30.34R
PERU/GRISSOM   FAIR      42  23  47 NW10      30.35R
MARION*        FAIR      44  24  45 N10G20    30.35R

$$
INZ028>050-200200-
CENTRAL INDIANA

CITY           SKY/WX    TMP DP  RH WIND       PRES   REMARKS
LAFAYETTE      FAIR      42  15  33 N9        30.39R
KOKOMO*        FAIR      42  25  50 NW12      30.36R
MUNCIE*        FAIR      47  26  44 NW15      30.32R
INDIANAPOLIS   FAIR      47  24  40 N14       30.35R

$$
MIZ043>046-050>051-056>058-064>065-071>073-077>080-200200-
SOUTHWEST LOWER MICHIGAN

CITY           SKY/WX    TMP DP  RH WIND       PRES   REMARKS
BATTLE CREEK   FAIR      45  27  49 NW12      30.32R
BENTON HARBOR  FAIR      39  26  59 CALM      30.39S
COLDWATER*     FAIR      42  29  59 W13       30.31R
HILLSDALE*     FAIR      45  28  53 NW12      30.28R
HOLLAND        FAIR      41  20  43 NW10      30.38R
GRAND RAPIDS   FAIR      44  18  35 NW12      30.35R
KALAMAZOO      FAIR      42  26  53 NW12      30.35R
STURGIS*       FAIR      40  28  63 NW9       30.34R
THREE RIVERS*  FAIR      40  26  58 NW12      30.35R

$$
OHZ001>008-015>018-024>025-200200-
NORTHWEST OHIO

CITY           SKY/WX    TMP DP  RH WIND       PRES   REMARKS
WAUSEON*       FAIR      45  30  57 NW12      30.27R
DEFIANCE       FAIR      45  33  63 NW13      30.29R
FINDLAY        FAIR      48  21  34 NW7       30.25R
TOLEDO EXPRESS FAIR      49  20  31 N8        30.26R
TOLEDO METCALF FAIR      49  20  31 N8        30.27R
LIMA           FAIR      47  32  56 NW16      30.27R

$$
AND FOR LAKE MICHIGAN COASTAL AND OPEN LAKE BUOY OBSERVATIONS

STATION/POSITION TEMP    WIND        PRES    VSBY  WAVE
                 AIR SEA DIR/SP/G                  HT/PER
                 (F)     (DEG/KT/KT) (MB)    (MI)  (FT/S)
CALUMET HARBOR    38     350/  5/  6 1029.1R
MICHIGAN CITY     40     290/  4/  5   N/A
BURNS HARBOR      40      40/  6/  8 1030.1S
SAINT JOSEPH      41     340/  7/ 10 1029.1

$$
&&




USA.gov is the U.S. government's official web portal to all federal, state and local government web resources and services.